Regional Weather Roundup
Issued by NWS Kansas City/Pleasant Hill, MO

Home | Current Version | Previous Version | Text Only | Print | Product List | Glossary On
Versions: 1 2 3 4 5 6 7 8 9 10 11 12 13 14 15 16 17 18 19 20 21 22 23 24 25 26 27 28 29 30 31 32 33 34 35 36 37 38 39 40 41 42 43 44 45 46 47 48 49 50
493
ASUS43 KEAX 220510
RWREAX

WEATHER ROUNDUP FOR EASTERN KANSAS AND NORTHWEST MISSOURI
NATIONAL WEATHER SERVICE KANSAS CITY/PLEASANT HILL MO
1100 PM CST TUE NOV 21 2017

KSZ040-057-103>105-MOZ028-029-037-043-220600-
...KANSAS CITY METROPOLITAN AREA...

CITY           SKY/WX    TMP DP  RH WIND       PRES   REMARKS
K.C. INTL      CLOUDY    25  15  66 NW8       30.39S WCI  16
K.C. DOWNTOWN  CLOUDY    30  15  53 NW7       30.40R WCI  23
LEES SUMMIT    CLEAR     28  16  60 N12       30.38R WCI  18
OLATHE - IXD   CLOUDY    24  16  71 NW9       30.39S WCI  14
OLATHE - OJC   CLEAR     28  15  58 N13       30.37S WCI  17
LAWRENCE       CLOUDY    24  16  71 NW10      30.42R WCI  14

$$

MOZ001>008-011>017-020>025-030>033-038>040-044>046-053-054-220600-
...NORTHERN AND CENTRAL MISSOURI...

CITY           SKY/WX    TMP DP  RH WIND       PRES   REMARKS
ST. JOSEPH     CLOUDY    23  10  57 NW5       30.42R WCI  17
MOSBY          CLOUDY    28  18  64 NW6       30.40R WCI  22
WARRENSBURG    CLOUDY    28  19  69 NW6       30.37F WCI  22
WHITEMAN AFB   CLEAR     28  17  65 N8        30.31F WCI  19
CLINTON        CLEAR     28  19  69 MISG      30.37R
SEDALIA        CLEAR     30  21  69 N8        30.36R WCI  22
WARSAW         NOT AVBL
CHILLICOTHE      N/A     27  16  63 NW3       30.37F
KIRKSVILLE     CLEAR     25  17  72 N9        30.33R WCI  15

$$

MOZ041-047>049-056>058-063>065-088>090-097-220600-
...EASTERN AND SOUTHERN MISSOURI...

CITY           SKY/WX    TMP DP  RH WIND       PRES   REMARKS
ST. LOUIS INTL CLEAR     32  20  61 NW12      30.29R WCI  23
SPIRIT OF STL  CLEAR     32  20  61 N7        30.30S WCI  26
COLUMBIA       CLEAR     28  19  69 NW6       30.33R WCI  22
JEFFERSON CITY CLEAR     32  18  56 NW5       30.35R WCI  27
ROLLA          CLEAR     30  19  63 N7        30.31R WCI  23
OSAGE BEACH    CLEAR     32  19  58 VRB5      30.35R WCI  27
SPRINGFIELD    CLEAR     34  20  56 N14G24    30.30R WCI  25
BRANSON        CLEAR     36  19  51 NW8       30.28R WCI  29
JOPLIN         CLEAR     32  21  64 N10       30.35R WCI  24
WEST PLAINS    CLEAR     39  19  44 N15G22    30.24R WCI  31

$$

IAZ060-094-KSZ022-034>040-054-083-096-NEZ052-066-093-220600-
...KANSAS...SOUTHEAST NEBRASKA AND IOWA...

CITY           SKY/WX    TMP DP  RH WIND       PRES   REMARKS
TOPEKA         CLOUDY    26  15  63 N6        30.41S WCI  19
MANHATTAN      CLOUDY    25  13  60 N5        30.44R WCI  19
EMPORIA        CLOUDY    24  13  62 N6        30.39S WCI  17
CHANUTE        CLOUDY    30  16  56 N9        30.36F WCI  22
WICHITA        CLOUDY    31  15  52 N9        30.40R WCI  23
OMAHA          CLOUDY    19  11  70 N10       30.41S WCI   7
LINCOLN        CLOUDY    21  12  68 MISG      30.44R
FALLS CITY     CLOUDY    22  13  68 NW8       30.41R WCI  12
LAMONI         CLOUDY    23  13  65 NW8       30.34S WCI  14
DES MOINES     CLOUDY    23  12  62 NW8       30.36S WCI  14

$$





USA.gov is the U.S. government's official web portal to all federal, state and local government web resources and services.